Georgetown, DE

1:46 AM EST on February 27, 2017 (GMT -0500)
Sussex County

Weather History for KGED - November, 2012

Change the Weather History Date:

Thursday, November 8, 2012

  Actual Average Record
Temperature  
Mean Temperature 44 °F 51 °F  
Max Temperature 52 °F 61 °F 76 °F (1996)
Min Temperature 36 °F 41 °F 22 °F (1960)
Degree Days  
Heating Degree Days 21 14  
Month to date heating degree days 171 106  
Since 1 July heating degree days 389 392  
Cooling Degree Days 0 0  
Month to date cooling degree days 0 0  
Year to date cooling degree days 1616 1194  
Moisture  
Dew Point 26 °F    
Average Humidity 60    
Maximum Humidity 92    
Minimum Humidity 28    
Precipitation  
Precipitation 0.01 in 0.12 in 0.98 in (1972)
Month to date precipitation 0.01 0.96  
Year to date precipitation 33.01 38.08  
Sea Level Pressure  
Sea Level Pressure 29.88 in    
Wind  
Wind Speed 7 mph (NW)    
Max Wind Speed 17 mph    
Max Gust Speed 28 mph    
Visibility 9 miles    
Events Rain    
T = Trace of Precipitation, MM = Missing Value Source: NWS Daily Summary

Daily Weather History Graph

Daily Weather History Graph

Search for Another Location

Airport or City:

Trip Planner

Search our weather history database for the weather conditions in past years. The results will help you decide how hot, cold, wet, or windy it might be!

Date:

Astronomy

Nov. 08, 2012 Rise Set
Actual Time 6:36 AM EST 4:53 PM EST
Civil Twilight 6:08 AM EST 5:21 PM EST
Nautical Twilight 5:36 AM EST 5:53 PM EST
Astronomical Twilight 5:05 AM EST 6:24 PM EST
Moon 12:33 AM EST (11/8) 1:30 PM EST (11/8)
Length of Visible Light 11h 13m
Length of Day
10h 17m
Waning Crescent, 33% of the Moon is Illuminated
Nov 8
Waning Crescent
Nov 13
New
Nov 20
First Quarter
Nov 28
Full
Dec 6
Last Quarter

Hourly Weather History & Observations

Time (EST) Temp. Windchill Dew Point Humidity Pressure Visibility Wind Dir Wind Speed Gust Speed Precip Events Conditions
12:54 AM 36.0 °F 29.6 °F 33.1 °F 89% 29.84 in 8.0 mi North 8.1 mph - N/A Rain Light Rain
1:19 AM 35.6 °F 29.9 °F 33.8 °F 93% 29.84 in 8.0 mi Variable 6.9 mph - N/A Rain Light Rain
1:37 AM 35.6 °F 29.2 °F 33.8 °F 93% 29.84 in 8.0 mi NNW 8.1 mph - N/A Rain Light Rain
1:51 AM 35.6 °F 29.9 °F 33.8 °F 93% 29.84 in 7.0 mi NNW 6.9 mph - N/A Rain Light Rain
1:54 AM 36.0 °F 30.3 °F 33.1 °F 89% 29.84 in 7.0 mi NNW 6.9 mph - N/A Rain Light Rain
2:20 AM 35.6 °F 29.2 °F 33.8 °F 93% 29.84 in 8.0 mi NW 8.1 mph - N/A Rain Light Rain
2:54 AM 36.0 °F 30.3 °F 33.1 °F 89% 29.84 in 7.0 mi Variable 6.9 mph - N/A   Overcast
3:28 AM 35.6 °F 30.7 °F 33.8 °F 93% 29.84 in 10.0 mi NW 5.8 mph - N/A   Overcast
3:54 AM 36.0 °F - 33.1 °F 89% 29.84 in 10.0 mi Calm Calm - N/A   Overcast
4:54 AM 39.0 °F 34.0 °F 30.9 °F 73% 29.86 in 10.0 mi NW 6.9 mph - N/A   Overcast
5:54 AM 39.9 °F 35.1 °F 30.0 °F 68% 29.86 in 10.0 mi WNW 6.9 mph - N/A   Overcast
6:54 AM 39.0 °F 35.7 °F 32.0 °F 76% 29.87 in 10.0 mi West 4.6 mph - N/A   Overcast
7:54 AM 39.9 °F 36.7 °F 30.9 °F 70% 29.88 in 10.0 mi Variable 4.6 mph - N/A   Overcast
8:54 AM 42.1 °F 39.2 °F 28.0 °F 58% 29.88 in 10.0 mi WNW 4.6 mph - N/A   Overcast
9:54 AM 46.0 °F 40.6 °F 26.1 °F 46% 29.89 in 10.0 mi NW 11.5 mph 16.1 mph N/A   Overcast
10:54 AM 48.0 °F - 24.1 °F 39% 29.88 in 10.0 mi NW 8.1 mph 20.7 mph N/A   Clear
11:54 AM 50.0 °F - 19.9 °F 31% 29.86 in 10.0 mi NNW 15.0 mph 20.7 mph N/A   Clear
12:54 PM 51.1 °F - 19.9 °F 29% 29.85 in 10.0 mi NNW 13.8 mph 26.5 mph N/A   Clear
1:54 PM 52.0 °F - 19.0 °F 27% 29.85 in 10.0 mi NNW 11.5 mph 23.0 mph N/A   Clear
2:54 PM 51.1 °F - 19.9 °F 29% 29.86 in 10.0 mi Variable 6.9 mph 18.4 mph N/A   Partly Cloudy
3:54 PM 51.1 °F - 19.9 °F 29% 29.87 in 10.0 mi Variable 6.9 mph 17.3 mph N/A   Clear
4:54 PM 50.0 °F - 19.9 °F 31% 29.88 in 10.0 mi NW 5.8 mph - N/A   Clear
5:54 PM 46.9 °F - 21.9 °F 37% 29.91 in 10.0 mi WNW 3.5 mph - N/A   Clear
6:54 PM 46.0 °F 43.1 °F 19.9 °F 35% 29.93 in 10.0 mi WNW 5.8 mph - N/A   Clear
7:54 PM 45.0 °F 41.2 °F 19.0 °F 36% 29.95 in 10.0 mi NW 6.9 mph - N/A   Clear
8:54 PM 45.0 °F 40.6 °F 19.0 °F 36% 29.96 in 10.0 mi NW 8.1 mph - N/A   Clear
9:54 PM 43.0 °F 40.3 °F 19.0 °F 38% 29.97 in 10.0 mi NW 4.6 mph - N/A   Clear
10:54 PM 43.0 °F 41.3 °F 18.0 °F 37% 29.99 in 10.0 mi NW 3.5 mph - N/A   Clear
11:54 PM 42.1 °F 39.2 °F 18.0 °F 38% 30.01 in 10.0 mi NW 4.6 mph - N/A   Clear